Date String (YYYY-MM-DD hh:mm:ss) UTC,Instrument flags,Ambient pressure (hPa),Sample flow (lpm),Bypass flow (lpm),Sample temperature (°C),Ambient temperature (°C),ASC tube jacket temperature (°C),LED temperature (°C),Box temperature (°C),Sample RH (%),Span deviation,Mass concentration (μg/m³),Mass concentration (μg/m³),Mass concentration (μg/m³)
DateTimeUTC,F1_M11,P_M11,Q1_M11,Q2_M11,T1_M11,T2_M11,T3_M11,T4_M11,T5_M11,U1_M11,ZSPAN_M11,X0_M11,X2_M11,X1_M11
2022-11-05 06:00:00,,0817.2,5.00,0.00,23.9,22.3,00.0,32.7,25.7,12.3,-001.4,0009.78,0006.57,0006.10
2022-11-05 06:01:00,,0817.2,5.00,0.00,23.9,22.3,00.0,32.7,25.7,12.3,-001.4,0009.62,0006.51,0006.09
2022-11-05 06:02:00,,0817.2,5.00,0.00,23.9,22.3,00.0,32.7,25.7,12.2,-001.3,0009.51,0006.48,0006.10
2022-11-05 06:03:00,,0817.1,5.00,0.00,23.9,22.3,00.0,32.7,25.7,12.1,-001.4,0009.52,0006.51,0006.12
2022-11-05 06:04:00,,0817.0,5.00,0.00,23.9,22.3,00.0,32.7,25.7,11.5,-001.2,0009.40,0006.42,0006.04
2022-11-05 06:05:00,,0817.0,5.00,0.00,23.9,22.3,00.0,32.7,25.7,11.1,-001.2,0009.15,0006.16,0005.81
2022-11-05 06:06:00,,0817.1,5.00,0.00,23.9,22.2,00.0,32.7,25.7,12.0,-001.2,0009.01,0006.05,0005.71
2022-11-05 06:07:00,,0817.1,4.99,0.00,23.8,22.2,00.0,32.6,25.7,12.3,-000.7,0008.95,0006.04,0005.71
2022-11-05 06:08:00,,0817.1,5.00,0.00,23.8,22.2,00.0,32.6,25.7,12.0,-000.6,0008.96,0006.02,0005.69
2022-11-05 06:09:00,,0817.0,5.00,0.00,23.8,22.2,00.0,32.6,25.6,11.6,-000.2,0008.88,0005.96,0005.63
2022-11-05 06:10:00,,0817.0,5.00,0.00,23.8,22.2,00.0,32.6,25.7,11.8,0000.0,0008.81,0005.91,0005.57
2022-11-05 06:11:00,,0817.0,4.99,0.00,23.8,22.2,00.0,32.6,25.7,11.4,0000.4,0008.62,0005.80,0005.46
2022-11-05 06:12:00,,0817.0,4.99,0.00,23.8,22.2,00.0,32.6,25.7,11.3,0001.2,0008.39,0005.66,0005.31
2022-11-05 06:13:00,,0817.0,5.00,0.00,23.8,22.2,00.0,32.6,25.7,11.7,0001.1,0008.44,0005.61,0005.25
2022-11-05 06:14:00,,0816.9,4.99,0.00,23.8,22.3,00.0,32.6,25.7,11.4,0000.8,0008.53,0005.47,0005.14
2022-11-05 06:15:00,,0817.1,4.99,0.00,23.8,22.2,00.0,32.6,25.7,11.5,0000.8,0008.44,0005.43,0005.13
2022-11-05 06:16:00,,0817.0,5.00,0.00,23.8,22.2,00.0,32.6,25.7,11.8,0001.2,0008.66,0005.65,0005.34
2022-11-05 06:17:00,,0817.0,5.00,0.00,23.8,22.2,00.0,32.6,25.6,11.8,0002.6,0008.73,0005.70,0005.40
2022-11-05 06:18:00,,0817.0,5.01,0.00,23.8,22.2,00.0,32.6,25.6,11.9,0002.9,0008.66,0005.66,0005.38
2022-11-05 06:19:00,,0817.0,5.00,0.00,23.8,22.2,00.0,32.6,25.6,12.1,0002.8,0008.70,0005.69,0005.42
2022-11-05 06:20:00,,0817.0,4.99,0.00,23.8,22.2,00.0,32.6,25.6,12.1,0002.0,0008.80,0005.79,0005.51
2022-11-05 06:21:00,,0817.0,5.01,0.00,23.8,22.2,00.0,32.6,25.6,12.1,0001.1,0008.86,0005.88,0005.60
2022-11-05 06:22:00,,0817.0,5.01,0.00,23.8,22.2,00.0,32.6,25.6,12.1,0000.6,0008.98,0006.01,0005.74
2022-11-05 06:23:00,,0817.0,4.99,0.00,23.8,22.2,00.0,32.6,25.6,12.2,-000.1,0009.10,0006.18,0005.92
2022-11-05 06:24:00,,0817.0,5.01,0.00,23.8,22.2,00.0,32.6,25.6,12.2,-000.5,0009.08,0006.27,0006.03
2022-11-05 06:25:00,,0816.9,5.01,0.00,23.8,22.2,00.0,32.6,25.6,12.1,-000.5,0008.87,0006.42,0006.16
2022-11-05 06:26:00,,0817.2,5.00,0.00,23.8,22.2,00.0,32.6,25.6,12.1,-000.8,0009.08,0006.57,0006.28
2022-11-05 06:27:00,,0817.2,4.98,0.00,23.8,22.2,00.0,32.6,25.6,12.1,-001.2,0009.53,0006.67,0006.35
2022-11-05 06:28:00,,0817.0,5.00,0.00,23.8,22.2,00.0,32.6,25.6,12.1,-001.7,0010.39,0006.73,0006.41
2022-11-05 06:29:00,,0817.1,5.00,0.00,23.8,22.2,00.0,32.6,25.6,12.0,-001.7,0010.67,0006.83,0006.48
2022-11-05 06:30:00,,0817.2,5.00,0.00,23.8,22.2,00.0,32.6,25.6,12.0,-001.5,0010.82,0006.86,0006.50
2022-11-05 06:31:00,,0817.0,5.00,0.00,23.8,22.2,00.0,32.6,25.6,12.1,-001.1,0010.93,0006.88,0006.51
2022-11-05 06:32:00,,0816.9,5.00,0.00,23.8,22.2,00.0,32.6,25.6,12.1,-000.9,0010.96,0006.89,0006.52
2022-11-05 06:33:00,,0816.9,4.98,0.00,23.8,22.2,00.0,32.6,25.6,12.1,-000.7,0010.99,0006.90,0006.53
2022-11-05 06:34:00,,0817.0,5.00,0.00,23.8,22.2,00.0,32.6,25.6,12.2,-000.3,0011.05,0006.92,0006.54
2022-11-05 06:35:00,,0817.2,5.01,0.00,23.8,22.2,00.0,32.5,25.6,12.2,0000.1,0011.57,0006.96,0006.54
2022-11-05 06:36:00,,0817.0,5.01,0.00,23.7,22.1,00.0,32.5,25.6,12.2,0000.3,0011.88,0006.93,0006.53
2022-11-05 06:37:00,,0816.8,5.01,0.00,23.7,22.1,00.0,32.5,25.6,12.0,0000.6,0011.75,0006.87,0006.51
2022-11-05 06:38:00,,0816.7,5.00,0.00,23.7,22.1,00.0,32.5,25.6,12.1,0001.0,0011.29,0006.82,0006.50
2022-11-05 06:39:00,,0816.6,4.99,0.00,23.7,22.1,00.0,32.5,25.6,12.1,0000.9,0010.53,0006.78,0006.44
2022-11-05 06:40:00,,0816.5,5.01,0.00,23.7,22.1,00.0,32.5,25.5,12.1,0000.5,0010.47,0006.70,0006.38
2022-11-05 06:41:00,,0816.5,5.00,0.00,23.7,21.9,00.0,32.5,25.5,12.3,0000.6,0010.80,0006.68,0006.36
2022-11-05 06:42:00,,0816.6,5.00,0.00,23.6,21.9,00.0,32.5,25.5,12.4,0001.0,0011.21,0006.65,0006.33
2022-11-05 06:43:00,,0816.8,5.01,0.00,23.6,21.8,00.0,32.5,25.4,12.5,0001.5,0011.62,0006.67,0006.33
2022-11-05 06:44:00,,0817.0,5.01,0.00,23.6,21.8,00.0,32.4,25.4,12.6,0001.7,0011.64,0006.70,0006.34
2022-11-05 06:45:00,,0816.6,5.00,0.00,23.6,21.8,00.0,32.4,25.4,12.7,0001.1,0011.63,0006.70,0006.32
2022-11-05 06:46:00,,0816.7,5.00,0.00,23.6,21.9,00.0,32.4,25.4,12.8,0000.3,0011.37,0006.69,0006.32
2022-11-05 06:47:00,,0816.9,5.00,0.00,23.5,21.9,00.0,32.4,25.4,12.9,0000.9,0011.03,0006.75,0006.32
2022-11-05 06:48:00,,0816.9,5.00,0.00,23.5,21.9,00.0,32.4,25.4,12.8,0001.1,0011.22,0006.82,0006.34
2022-11-05 06:49:00,,0816.8,5.00,0.00,23.5,21.9,00.0,32.4,25.4,12.8,0000.2,0011.31,0006.87,0006.35
2022-11-05 06:50:00,,0817.0,4.98,0.00,23.5,22.0,00.0,32.4,25.4,12.8,-000.4,0012.20,0006.96,0006.40
2022-11-05 06:51:00,,0817.1,5.00,0.00,23.5,21.9,00.0,32.4,25.4,12.8,-000.3,0012.73,0007.10,0006.47
2022-11-05 06:52:00,,0817.0,5.01,0.00,23.5,21.9,00.0,32.3,25.4,12.6,-000.9,0012.67,0007.16,0006.49
2022-11-05 06:53:00,,0817.0,5.01,0.00,23.5,21.9,00.0,32.3,25.4,12.7,-001.3,0012.28,0007.17,0006.50
2022-11-05 06:54:00,,0816.9,4.99,0.00,23.5,21.9,00.0,32.3,25.4,12.9,-001.2,0013.08,0007.19,0006.49
2022-11-05 06:55:00,,0816.9,5.01,0.00,23.5,21.9,00.0,32.3,25.4,13.0,-001.6,0013.23,0007.19,0006.47
2022-11-05 06:56:00,,0817.0,5.01,0.00,23.5,21.9,00.0,32.3,25.3,12.9,-001.6,0014.12,0007.27,0006.48
2022-11-05 06:57:00,,0817.0,5.00,0.00,23.5,21.9,00.0,32.3,25.3,13.0,-001.7,0014.20,0007.31,0006.48
2022-11-05 06:58:00,,0817.0,5.00,0.00,23.5,21.9,00.0,32.3,25.3,13.1,-002.2,0014.27,0007.31,0006.48
2022-11-05 06:59:00,,0817.0,5.00,0.00,23.5,21.9,00.0,32.3,25.3,13.0,-002.2,0014.34,0007.33,0006.48
